Weather History for KEMV - November, 2013

Change the Weather History Date:

Tuesday, November 19, 2013

  Actual Average (KRIC) Record (KRIC)
Temperature  
Mean Temperature 43 °F 49 °F  
Max Temperature 51 °F 60 °F 81 °F (1934)
Min Temperature 35 °F 39 °F 18 °F (1936)
Degree Days  
Heating Degree Days 22 16  
Month to date heating degree days 247  
Since 1 July heating degree days 480  
Cooling Degree Days 0 0  
Month to date cooling degree days 0  
Year to date cooling degree days 1543  
Moisture  
Dew Point 29 °F    
Average Humidity 56    
Maximum Humidity 75    
Minimum Humidity 41    
Precipitation  
Precipitation 0.00 in 0.10 in 1.52 in (2003)
Month to date precipitation 2.04  
Year to date precipitation 39.14  
Snow  
Snow 0.00 in 0.00 in T in (2000)
Month to date snowfall 0.1  
Since 1 July snowfall 0.1  
Snow Depth -    
Sea Level Pressure  
Sea Level Pressure 30.16 in    
Wind  
Wind Speed 7 mph (NW)    
Max Wind Speed 16 mph    
Max Gust Speed 21 mph    
Visibility 10 miles    
Events      
T = Trace of Precipitation, MM = Missing Value Source: NWS Daily Summary

Daily Weather History Graph

Daily Weather History Graph

Search for Another Location

Airport or City:

Trip Planner

Search our weather history database for the weather conditions in past years. The results will help you decide how hot, cold, wet, or windy it might be!

Date:

Astronomy

Nov. 19, 2013 Rise Set
Actual Time 6:52 AM EST 4:58 PM EST
Civil Twilight 6:24 AM EST 5:26 PM EST
Nautical Twilight 5:52 AM EST 5:57 PM EST
Astronomical Twilight 5:22 AM EST 6:28 PM EST
Moon 6:48 PM EST (11/19) 8:29 AM EST (11/19)
Length of Visible Light 11h 01m
Length of Day
10h 06m
Waning Gibbous, 96% of the Moon is Illuminated
Nov 19
Waning Gibbous
Nov 25
Last Quarter
Dec 2
New
Dec 9
First Quarter
Dec 17
Full

Hourly Weather History & Observations

Time (EST) Temp. Windchill Dew Point Humidity Pressure Visibility Wind Dir Wind Speed Gust Speed Precip Events Conditions
12:15 AM 50.0 °F - 28.4 °F 43% 29.95 in 10.0 mi WNW 8.1 mph - N/A   Unknown
12:35 AM 50.0 °F - 28.4 °F 43% 29.95 in 10.0 mi WNW 6.9 mph - N/A   Unknown
12:55 AM 50.0 °F - 28.4 °F 43% 29.95 in 10.0 mi WNW 5.8 mph - N/A   Unknown
1:15 AM 48.2 °F - 28.4 °F 46% 29.96 in 10.0 mi West 6.9 mph - N/A   Unknown
1:35 AM 46.4 °F 42.4 °F 28.4 °F 50% 29.96 in 10.0 mi West 8.1 mph - N/A   Unknown
1:55 AM 46.4 °F 43.5 °F 28.4 °F 50% 29.97 in 10.0 mi West 5.8 mph - N/A   Unknown
2:15 AM 46.4 °F 42.9 °F 28.4 °F 50% 29.97 in 10.0 mi WNW 6.9 mph - N/A   Unknown
2:35 AM 46.4 °F 41.9 °F 26.6 °F 46% 29.97 in 10.0 mi WNW 9.2 mph - N/A   Unknown
2:55 AM 46.4 °F 41.9 °F 26.6 °F 46% 29.98 in 10.0 mi WNW 9.2 mph - N/A   Unknown
3:15 AM 46.4 °F 40.4 °F 26.6 °F 46% 29.98 in 10.0 mi WNW 13.8 mph 19.6 mph N/A   Unknown
3:35 AM 44.6 °F 39.7 °F 26.6 °F 49% 29.99 in 10.0 mi NNW 9.2 mph - N/A   Unknown
3:55 AM 44.6 °F 39.7 °F 26.6 °F 49% 30.00 in 10.0 mi NW 9.2 mph 16.1 mph N/A   Unknown
4:15 AM 42.8 °F 37.5 °F 26.6 °F 53% 30.02 in 10.0 mi WNW 9.2 mph - N/A   Unknown
4:35 AM 44.6 °F 40.7 °F 26.6 °F 49% 30.03 in 10.0 mi NW 6.9 mph - N/A   Unknown
4:37 AM 44.6 °F 41.4 °F 26.6 °F 49% 30.03 in 10.0 mi NW 5.8 mph - N/A   Unknown
4:55 AM 41.0 °F 38.0 °F 26.6 °F 57% 30.04 in 10.0 mi WNW 4.6 mph - N/A   Unknown
5:15 AM 41.0 °F 39.0 °F 28.4 °F 61% 30.05 in 10.0 mi NW 3.5 mph - N/A   Unknown
5:35 AM 39.2 °F - 28.4 °F 65% 30.07 in 10.0 mi Calm Calm - N/A   Unknown
5:55 AM 37.4 °F 33.8 °F 28.4 °F 70% 30.07 in 10.0 mi WNW 4.6 mph - N/A   Unknown
6:15 AM 39.2 °F 35.9 °F 28.4 °F 65% 30.08 in 10.0 mi WNW 4.6 mph - N/A   Unknown
6:35 AM 37.4 °F - 28.4 °F 70% 30.10 in 10.0 mi Calm Calm - N/A   Unknown
6:55 AM 35.6 °F - 28.4 °F 75% 30.10 in 10.0 mi Calm Calm - N/A   Unknown
7:15 AM 37.4 °F 33.8 °F 28.4 °F 70% 30.12 in 10.0 mi NW 4.6 mph - N/A   Unknown
7:35 AM 37.4 °F - 30.2 °F 75% 30.13 in 10.0 mi Calm Calm - N/A   Unknown
7:55 AM 41.0 °F - 30.2 °F 65% 30.13 in 10.0 mi Calm Calm - N/A   Unknown
8:15 AM 42.8 °F 38.6 °F 30.2 °F 61% 30.14 in 10.0 mi WNW 6.9 mph - N/A   Unknown
8:35 AM 44.6 °F 40.2 °F 30.2 °F 57% 30.15 in 10.0 mi NW 8.1 mph - N/A   Unknown
8:55 AM 46.4 °F 41.5 °F 30.2 °F 53% 30.16 in 10.0 mi NW 10.4 mph - N/A   Unknown
9:15 AM 46.4 °F 41.1 °F 28.4 °F 50% 30.16 in 10.0 mi NNW 11.5 mph 19.6 mph N/A   Unknown
9:35 AM 46.4 °F 41.5 °F 28.4 °F 50% 30.17 in 10.0 mi North 10.4 mph 16.1 mph N/A   Unknown
9:55 AM 48.2 °F - 28.4 °F 46% 30.18 in 10.0 mi NW 13.8 mph - N/A   Unknown
10:15 AM 48.2 °F - 28.4 °F 46% 30.19 in 10.0 mi North 11.5 mph - N/A   Unknown
10:35 AM 50.0 °F - 28.4 °F 43% 30.19 in 10.0 mi NW 13.8 mph - N/A   Unknown
10:55 AM 50.0 °F - 28.4 °F 43% 30.19 in 10.0 mi NW 16.1 mph 20.7 mph N/A   Unknown
11:15 AM 50.0 °F - 28.4 °F 43% 30.18 in 10.0 mi North 9.2 mph 16.1 mph N/A   Unknown
11:35 AM 50.0 °F - 28.4 °F 43% 30.18 in 10.0 mi NNW 10.4 mph 18.4 mph N/A   Unknown
11:55 AM 51.8 °F - 28.4 °F 41% 30.17 in 10.0 mi NW 9.2 mph 16.1 mph N/A   Unknown
12:15 PM 51.8 °F - 28.4 °F 41% 30.17 in 10.0 mi NNW 9.2 mph 16.1 mph N/A   Unknown
12:35 PM 51.8 °F - 28.4 °F 41% 30.17 in 10.0 mi NW 15.0 mph 19.6 mph N/A   Unknown
12:55 PM 51.8 °F - 28.4 °F 41% 30.17 in 10.0 mi NNW 10.4 mph - N/A   Unknown
1:15 PM 51.8 °F - 28.4 °F 41% 30.16 in 10.0 mi NW 10.4 mph - N/A   Unknown
1:35 PM 51.8 °F - 28.4 °F 41% 30.17 in 10.0 mi NNW 10.4 mph 16.1 mph N/A   Unknown
1:55 PM 51.8 °F - 28.4 °F 41% 30.16 in 10.0 mi North 9.2 mph - N/A   Unknown
2:15 PM 51.8 °F - 28.4 °F 41% 30.16 in 10.0 mi NNW 6.9 mph - N/A   Unknown
2:35 PM 51.8 °F - 28.4 °F 41% 30.17 in 10.0 mi NNW 11.5 mph - N/A   Unknown
2:55 PM 51.8 °F - 28.4 °F 41% 30.17 in 10.0 mi NNW 6.9 mph - N/A   Unknown
3:15 PM 51.8 °F - 28.4 °F 41% 30.17 in 10.0 mi NNW 5.8 mph - N/A   Unknown
3:35 PM 50.0 °F - 28.4 °F 43% 30.17 in 10.0 mi NNW 5.8 mph - N/A   Unknown
3:55 PM 50.0 °F - 28.4 °F 43% 30.18 in 10.0 mi North 5.8 mph - N/A   Unknown
4:15 PM 50.0 °F - 28.4 °F 43% 30.19 in 10.0 mi North 6.9 mph - N/A   Unknown
4:35 PM 48.2 °F - 30.2 °F 50% 30.20 in 10.0 mi North 3.5 mph - N/A   Unknown
4:55 PM 46.4 °F 45.2 °F 30.2 °F 53% 30.21 in 10.0 mi North 3.5 mph - N/A   Unknown
5:15 PM 44.6 °F 43.1 °F 30.2 °F 57% 30.22 in 10.0 mi NNW 3.5 mph - N/A   Unknown
5:35 PM 42.8 °F - 30.2 °F 61% 30.23 in 10.0 mi Calm Calm - N/A   Unknown
5:55 PM 41.0 °F 39.0 °F 32.0 °F 70% 30.25 in 10.0 mi NW 3.5 mph - N/A   Unknown
6:15 PM 42.8 °F 41.1 °F 32.0 °F 66% 30.25 in 10.0 mi NNW 3.5 mph - N/A   Unknown
6:35 PM 41.0 °F 39.0 °F 30.2 °F 65% 30.26 in 10.0 mi NNW 3.5 mph - N/A   Unknown
6:55 PM 41.0 °F 39.0 °F 30.2 °F 65% 30.27 in 10.0 mi NNW 3.5 mph - N/A   Unknown
7:15 PM 41.0 °F 39.0 °F 30.2 °F 65% 30.28 in 10.0 mi North 3.5 mph - N/A   Unknown
7:35 PM 41.0 °F - 30.2 °F 65% 30.29 in 10.0 mi Calm Calm - N/A   Unknown
7:55 PM 39.2 °F - 30.2 °F 70% 30.30 in 10.0 mi Calm Calm - N/A   Unknown
8:15 PM 39.2 °F 37.0 °F 30.2 °F 70% 30.30 in 10.0 mi NNW 3.5 mph - N/A   Unknown
8:35 PM 39.2 °F 35.9 °F 30.2 °F 70% 30.30 in 10.0 mi North 4.6 mph - N/A   Unknown
8:55 PM 37.4 °F 34.9 °F 30.2 °F 75% 30.30 in 10.0 mi North 3.5 mph - N/A   Unknown
9:15 PM 37.4 °F 32.8 °F 30.2 °F 75% 30.32 in 10.0 mi NNW 5.8 mph - N/A   Unknown
9:35 PM 37.4 °F 32.8 °F 30.2 °F 75% 30.32 in 10.0 mi North 5.8 mph - N/A   Unknown
9:55 PM 37.4 °F 34.9 °F 30.2 °F 75% 30.33 in 10.0 mi North 3.5 mph - N/A   Unknown
10:15 PM 37.4 °F 32.8 °F 30.2 °F 75% 30.32 in 10.0 mi North 5.8 mph - N/A   Unknown
10:35 PM 37.4 °F 33.8 °F 30.2 °F 75% 30.33 in 10.0 mi NNW 4.6 mph - N/A   Unknown
10:55 PM 37.4 °F 33.8 °F 30.2 °F 75% 30.34 in 10.0 mi North 4.6 mph - N/A   Unknown
11:15 PM 37.4 °F 34.9 °F 28.4 °F 70% 30.35 in 10.0 mi North 3.5 mph - N/A   Unknown
11:35 PM 37.4 °F 33.8 °F 28.4 °F 70% 30.35 in 10.0 mi NNW 4.6 mph - N/A   Unknown
11:55 PM 37.4 °F 34.9 °F 30.2 °F 75% 30.36 in 10.0 mi NNW 3.5 mph - N/A   Unknown